Location: Hope
(40.9110°N, 74.9680°W)
Time: 00:16:16
(UTC-04:00)

Envisat - Pass Details

Date: 02 February 2019
Orbit: 764 x 766 km, 98.1° (Epoch: 23 October)

Event Time Altitude Azimuth Distance (km) Brightness Sun altitude
Rises 18:17:33 0° 153° (SSE) 3,219 6.1 -11.6°
Reaches altitude 10° 18:19:53 10° 148° (SSE) 2,297 5.3 -12.0°
Maximum altitude 18:24:48 54° 73° (ENE) 930 3.1 -12.9°
Drops below altitude 10° 18:29:45 10° 357° (N) 2,311 5.4 -13.8°
Sets 18:32:06 0° 353° (N) 3,241 6.2 -14.3°
